| time (UTC) | temp C | wind direction | speed KPH | gust KPH | rain 1hr cm | rain 24hr cm | rain mn cm | humidity % | barometer mb |
| 20260906094056 | 22 | 0.0 | 0.0 | 0.00 | 0.43 | 0.00 | 95 | 1011.9 | |
| 20260906093556 | 22 | 0.0 | 0.0 | 0.00 | 0.43 | 0.00 | 95 | 1011.9 | |
| 20260906093111 | 22 | 0.0 | 0.0 | 0.00 | 0.43 | 0.00 | 95 | 1011.9 | |
| 20260906092558 | 22 | 0.0 | 0.0 | 0.00 | 0.43 | 0.00 | 95 | 1011.8 | |
| 20260906092056 | 22 | 0.0 | 0.0 | 0.00 | 0.43 | 0.00 | 95 | 1011.9 | |
| 20260906091623 | 22 | 0.0 | 0.0 | 0.00 | 0.43 | 0.00 | 95 | 1011.9 | |
| 20260906091055 | 22 | 0.0 | 0.0 | 0.00 | 0.43 | 0.00 | 95 | 1011.9 | |
| 20260906090555 | 22 | 0.0 | 0.0 | 0.00 | 0.43 | 0.00 | 95 | 1011.9 | |
| 20260906090108 | 22 | 0.0 | 0.0 | 0.00 | 0.43 | 0.00 | 95 | 1011.8 | |
| 20260906085556 | 22 | 0.0 | 0.0 | 0.00 | 0.43 | 0.00 | 94 | 1011.7 | |
| 20260906085055 | 22 | 0.0 | 0.0 | 0.00 | 0.43 | 0.00 | 94 | 1011.6 | |
| 20260906084608 | 22 | 0.0 | 0.0 | 0.00 | 0.43 | 0.00 | 94 | 1011.6 | |
| 20260906084058 | 22 | 0.0 | 0.0 | 0.00 | 0.43 | 0.00 | 94 | 1011.6 | |
| 20260906083554 | 22 | 0.0 | 0.0 | 0.00 | 0.43 | 0.00 | 94 | 1011.6 | |
| 20260906083105 | 22 | 0.0 | 0.0 | 0.00 | 0.43 | 0.00 | 95 | 1011.5 | |
| 20260906082555 | 22 | 0.0 | 0.0 | 0.00 | 0.43 | 0.00 | 94 | 1011.4 | |
| 20260906082056 | 22 | 0.0 | 0.0 | 0.00 | 0.43 | 0.00 | 94 | 1011.5 | |
| 20260906081606 | 22 | 0.0 | 0.0 | 0.00 | 0.43 | 0.00 | 94 | 1011.5 | |
| 20260906081054 | 22 | 0.0 | 0.0 | 0.00 | 0.43 | 0.00 | 94 | 1011.5 | |
| 20260906080555 | 22 | 0.0 | 0.0 | 0.00 | 0.43 | 0.00 | 94 | 1011.6 | |
| 20260906080106 | 22 | 0.0 | 0.0 | 0.00 | 0.43 | 0.00 | 94 | 1011.6 | |
| 20260906075554 | 22 | 0.0 | 0.0 | 0.00 | 0.43 | 0.00 | 94 | 1011.5 | |
| 20260906075057 | 22 | 0.0 | 0.0 | 0.00 | 0.43 | 0.00 | 94 | 1011.5 | |
| 20260906074613 | 22 | 0.0 | 0.0 | 0.00 | 0.43 | 0.00 | 94 | 1011.4 | |
| 20260906074055 | 22 | 0.0 | 0.0 | 0.00 | 0.43 | 0.00 | 94 | 1011.4 | |
| 20260906073554 | 22 | 0.0 | 0.0 | 0.00 | 0.43 | 0.00 | 94 | 1011.5 | |
| 20260906073105 | 22 | 0.0 | 0.0 | 0.00 | 0.43 | 0.00 | 94 | 1011.5 | |
| 20260906072555 | 22 | 0.0 | 0.0 | 0.00 | 0.43 | 0.00 | 94 | 1011.5 | |
| 20260906072054 | 22 | 0.0 | 0.0 | 0.00 | 0.43 | 0.00 | 94 | 1011.5 | |
| 20260906071607 | 22 | 0.0 | 0.0 | 0.00 | 0.43 | 0.00 | 94 | 1011.6 | |
| 20260906071057 | 22 | 0.0 | 0.0 | 0.00 | 0.43 | 0.00 | 94 | 1011.7 | |
| 20260906070555 | 22 | 0.0 | 0.0 | 0.00 | 0.43 | 0.00 | 94 | 1011.7 | |
| 20260906070111 | 22 | 0.0 | 0.0 | 0.00 | 0.43 | 0.00 | 94 | 1011.6 | |
| 20260906065555 | 22 | 0.0 | 0.0 | 0.00 | 0.43 | 0.00 | 94 | 1011.7 | |
| 20260906065138 | 22 | 0.0 | 0.0 | 0.00 | 0.43 | 0.00 | 94 | 1011.6 | |
| 20260906064607 | 22 | 0.0 | 0.0 | 0.00 | 0.43 | 0.00 | 94 | 1011.6 | |
| 20260906064055 | 22 | 0.0 | 0.0 | 0.00 | 0.43 | 0.00 | 94 | 1011.8 | |
| 20260906063554 | 22 | 0.0 | 0.0 | 0.00 | 0.43 | 0.00 | 94 | 1011.8 | |
| 20260906063112 | 22 | 0.0 | 0.0 | 0.00 | 0.43 | 0.00 | 94 | 1011.8 | |
| 20260906062554 | 22 | 0.0 | 0.0 | 0.00 | 0.43 | 0.00 | 94 | 1011.9 | |
| 20260906062057 | 22 | 0.0 | 0.0 | 0.00 | 0.43 | 0.00 | 94 | 1011.9 | |
| 20260906061610 | 22 | 0.0 | 0.0 | 0.00 | 0.43 | 0.00 | 94 | 1012.0 | |
| 20260906061054 | 22 | 0.0 | 0.0 | 0.00 | 0.43 | 0.00 | 94 | 1012.0 | |
| 20260906060557 | 22 | 0.0 | 0.0 | 0.00 | 0.43 | 0.00 | 94 | 1012.0 | |
| 20260906060114 | 22 | 0.0 | 0.0 | 0.00 | 0.43 | 0.00 | 94 | 1012.1 | |
| 20260906055558 | 22 | 0.0 | 0.0 | 0.00 | 0.43 | 0.00 | 94 | 1012.1 | |
| 20260906055054 | 22 | 0.0 | 0.0 | 0.00 | 0.43 | 0.00 | 94 | 1012.2 | |
| 20260906054604 | 22 | 0.0 | 0.0 | 0.00 | 0.43 | 0.00 | 94 | 1012.3 | |
| 20260906054055 | 22 | 0.0 | 0.0 | 0.00 | 0.43 | 0.00 | 93 | 1012.5 | |
| 20260906053556 | 23 | 0.0 | 0.0 | 0.00 | 0.43 | 0.00 | 93 | 1012.4 | |
| 20260906053110 | 23 | 0.0 | 0.0 | 0.00 | 0.43 | 0.00 | 93 | 1012.4 | |
| 20260906052557 | 23 | 0.0 | 0.0 | 0.00 | 0.43 | 0.00 | 93 | 1012.4 | |
| 20260906052055 | 23 | 0.0 | 0.0 | 0.00 | 0.43 | 0.00 | 93 | 1012.5 | |
| 20260906051608 | 23 | 0.0 | 0.0 | 0.00 | 0.43 | 0.00 | 93 | 1012.5 | |
| 20260906051100 | 23 | 0.0 | 0.0 | 0.00 | 0.43 | 0.00 | 93 | 1012.5 | |
| 20260906050554 | 23 | 0.0 | 0.0 | 0.00 | 0.43 | 0.00 | 93 | 1012.5 | |
| 20260906050136 | 23 | 0.0 | 0.0 | 0.00 | 0.43 | 0.00 | 93 | 1012.6 | |
| 20260906045553 | 23 | 0.0 | 0.0 | 0.00 | 0.43 | 0.00 | 93 | 1012.6 | |
| 20260906045054 | 22 | 0.0 | 0.0 | 0.03 | 0.43 | 0.00 | 93 | 1012.5 | |
| 20260906044605 | 22 | 0.0 | 0.0 | 0.03 | 0.43 | 0.00 | 93 | 1012.7 | |
| 20260906044058 | 22 | 0.0 | 0.0 | 0.05 | 0.43 | 0.00 | 93 | 1012.7 | |
| 20260906043554 | 22 | 0.0 | 0.0 | 0.08 | 0.43 | 0.00 | 93 | 1012.5 | |
| 20260906043107 | 22 | 0.0 | 0.0 | 0.23 | 0.43 | 0.00 | 92 | 1012.5 | |
| 20260906042555 | 22 | 0.0 | 0.0 | 0.43 | 0.43 | 0.00 | 92 | 1012.4 | |
| 20260906042054 | 22 | 0.0 | 0.0 | 0.43 | 0.43 | 0.00 | 92 | 1012.4 | |
| 20260906041608 | 22 | 0.0 | 0.0 | 0.43 | 0.43 | 0.00 | 92 | 1012.5 | |
| 20260906041055 | 22 | 0.0 | 0.0 | 0.43 | 0.43 | 0.00 | 92 | 1012.5 | |
| 20260906040556 | 22 | 0.0 | 0.0 | 0.43 | 0.43 | 0.00 | 92 | 1012.6 | |
| 20260906040139 | 22 | 0.0 | 0.0 | 0.43 | 0.43 | 0.00 | 91 | 1012.5 | |
| 20260906035556 | 22 | 0.0 | 0.0 | 0.43 | 0.43 | 0.43 | 91 | 1012.4 | |
| 20260906035059 | 23 | 0.0 | 0.0 | 0.41 | 0.41 | 0.41 | 90 | 1012.5 | |
| 20260906034608 | 22 | 0.0 | 0.0 | 0.41 | 0.41 | 0.41 | 88 | 1012.4 | |
| 20260906034054 | 23 | 0.0 | 0.0 | 0.38 | 0.38 | 0.38 | 86 | 1012.4 | |
| 20260906033554 | 23 | 0.0 | 0.0 | 0.36 | 0.36 | 0.36 | 85 | 1012.4 | |
| 20260906033104 | 25 | 0.0 | 0.0 | 0.20 | 0.20 | 0.20 | 82 | 1012.9 | |
| 20260906032554 | 26 | 0.0 | 0.0 | 0.00 | 0.00 | 0.00 | 79 | 1013.0 | |
| 20260906032054 | 25 | 0.0 | 0.0 | 0.00 | 0.00 | 0.00 | 81 | 1012.9 | |
| 20260906031604 | 25 | 0.0 | 0.0 | 0.00 | 0.00 | 0.00 | 81 | 1013.1 | |
| 20260906031054 | 25 | 0.0 | 0.0 | 0.00 | 0.00 | 0.00 | 81 | 1013.1 | |
| 20260906030554 | 25 | 0.0 | 0.0 | 0.00 | 0.00 | 0.00 | 81 | 1013.1 | |
| 20260906030109 | 25 | 0.0 | 0.0 | 0.00 | 0.00 | 0.00 | 81 | 1013.0 | |
| 20260906025555 | 26 | 0.0 | 0.0 | 0.00 | 0.00 | 0.00 | 80 | 1013.2 | |
| 20260906025055 | 26 | 0.0 | 0.0 | 0.00 | 0.00 | 0.00 | 80 | 1013.1 | |
| 20260906024609 | 26 | 0.0 | 0.0 | 0.00 | 0.00 | 0.00 | 80 | 1012.9 | |
| 20260906024057 | 26 | 0.0 | 0.0 | 0.00 | 0.00 | 0.00 | 79 | 1012.9 | |
| 20260906023555 | 25 | 0.0 | 0.0 | 0.00 | 0.00 | 0.00 | 80 | 1013.0 | |
| 20260906023108 | 25 | 0.0 | 0.0 | 0.00 | 0.00 | 0.00 | 80 | 1012.9 | |
| 20260906022556 | 25 | 0.0 | 0.0 | 0.00 | 0.00 | 0.00 | 80 | 1012.8 | |
| 20260906022054 | 26 | 0.0 | 0.0 | 0.00 | 0.00 | 0.00 | 79 | 1012.9 | |
| 20260906021609 | 26 | 0.0 | 0.0 | 0.00 | 0.00 | 0.00 | 79 | 1012.9 | |
| 20260906021054 | 26 | 0.0 | 0.0 | 0.00 | 0.00 | 0.00 | 79 | 1012.9 | |
| 20260906020554 | 26 | 0.0 | 0.0 | 0.00 | 0.00 | 0.00 | 79 | 1012.9 | |
| 20260906020111 | 26 | 0.0 | 0.0 | 0.00 | 0.00 | 0.00 | 78 | 1012.9 | |
| 20260906015556 | 26 | 0.0 | 0.0 | 0.00 | 0.00 | 0.00 | 78 | 1012.7 | |
| 20260906015056 | 26 | 0.0 | 0.0 | 0.00 | 0.00 | 0.00 | 79 | 1012.7 | |
| 20260906014613 | 26 | 0.0 | 0.0 | 0.00 | 0.00 | 0.00 | 79 | 1012.9 | |
| 20260906014054 | 26 | 0.0 | 0.0 | 0.00 | 0.00 | 0.00 | 78 | 1012.8 | |
| 20260906013554 | 26 | 0.0 | 0.0 | 0.00 | 0.00 | 0.00 | 77 | 1012.7 | |
| 20260906013108 | 26 | 0.0 | 0.0 | 0.00 | 0.00 | 0.00 | 79 | 1012.7 | |
| 20260906012557 | 26 | 0.0 | 0.0 | 0.00 | 0.00 | 0.00 | 79 | 1012.6 | |
| 20260906012053 | 26 | 0.0 | 0.0 | 0.00 | 0.00 | 0.00 | 79 | 1012.5 | |
| 20260906011607 | 26 | 0.0 | 0.0 | 0.00 | 0.00 | 0.00 | 78 | 1012.4 | |
| 20260906011058 | 26 | 0.0 | 0.0 | 0.00 | 0.00 | 0.00 | 78 | 1012.3 | |
| 20260906010554 | 26 | 0.0 | 0.0 | 0.00 | 0.00 | 0.00 | 77 | 1012.3 | |
| 20260906010110 | 26 | 0.0 | 0.0 | 0.00 | 0.00 | 0.00 | 77 | 1012.1 | |
| 20260906005554 | 26 | 0.0 | 0.0 | 0.00 | 0.00 | 0.00 | 77 | 1012.2 | |
| 20260906005054 | 26 | 0.0 | 0.0 | 0.00 | 0.00 | 0.00 | 77 | 1011.9 | |
| 20260906004605 | 26 | 0.0 | 0.0 | 0.00 | 0.00 | 0.00 | 77 | 1011.6 | |
| 20260906004054 | 26 | 0.0 | 0.0 | 0.00 | 0.00 | 0.00 | 77 | 1011.8 | |
| 20260906003554 | 26 | 0.0 | 0.0 | 0.00 | 0.00 | 0.00 | 76 | 1011.9 | |
| 20260906003107 | 26 | 0.0 | 0.0 | 0.00 | 0.00 | 0.00 | 76 | 1011.8 | |
| 20260906002553 | 27 | 0.0 | 0.0 | 0.00 | 0.00 | 0.00 | 76 | 1011.7 | |
| 20260906002054 | 27 | 0.0 | 0.0 | 0.00 | 0.00 | 0.00 | 76 | 1011.7 | |
| 20260906001621 | 27 | 0.0 | 0.0 | 0.00 | 0.00 | 0.00 | 76 | 1011.8 | |
| 20260906001054 | 27 | 0.0 | 0.0 | 0.00 | 0.00 | 0.00 | 75 | 1011.8 | |
| 20260906000556 | 28 | 0.0 | 0.0 | 0.00 | 0.00 | 0.00 | 72 | 1011.9 | |
| 20260906000108 | 28 | 0.0 | 0.0 | 0.00 | 0.00 | 0.00 | 68 | 1011.9 | |
| 20260905235554 | 28 | 0.0 | 0.0 | 0.00 | 0.00 | 0.00 | 68 | 1011.9 | |
| 20260905235054 | 28 | 0.0 | 0.0 | 0.00 | 0.00 | 0.00 | 68 | 1011.8 | |
| 20260905234606 | 28 | 0.0 | 0.0 | 0.00 | 0.00 | 0.00 | 68 | 1011.8 | |
| 20260905234054 | 28 | 0.0 | 0.0 | 0.00 | 0.00 | 0.00 | 67 | 1011.7 | |
| 20260905233555 | 28 | 0.0 | 0.0 | 0.00 | 0.00 | 0.00 | 66 | 1011.9 | |
| 20260905233113 | 28 | 0.0 | 0.0 | 0.00 | 0.00 | 0.00 | 66 | 1011.8 | |
| 20260905232556 | 29 | 0.0 | 0.0 | 0.00 | 0.00 | 0.00 | 65 | 1012.1 | |
| 20260905232054 | 29 | 0.0 | 0.0 | 0.00 | 0.00 | 0.00 | 65 | 1012.1 | |
| 20260905231611 | 29 | 0.0 | 0.0 | 0.00 | 0.00 | 0.00 | 64 | 1011.9 | |
| 20260905231057 | 29 | 0.0 | 0.0 | 0.00 | 0.00 | 0.00 | 64 | 1011.6 | |
| 20260905230554 | 29 | 0.0 | 0.0 | 0.00 | 0.00 | 0.00 | 63 | 1011.6 | |
| 20260905230113 | 30 | 0.0 | 0.0 | 0.00 | 0.00 | 0.00 | 63 | 1011.8 | |
| 20260905225553 | 30 | 0.0 | 0.0 | 0.00 | 0.00 | 0.00 | 61 | 1011.6 | |
| 20260905225054 | 30 | 0.0 | 0.0 | 0.00 | 0.00 | 0.00 | 60 | 1011.6 | |
| 20260905224610 | 30 | 0.0 | 0.0 | 0.00 | 0.00 | 0.00 | 60 | 1011.6 | |
| 20260905224054 | 30 | 0.0 | 0.0 | 0.00 | 0.00 | 0.00 | 62 | 1011.7 | |
| 20260905223553 | 30 | 0.0 | 0.0 | 0.00 | 0.00 | 0.00 | 61 | 1011.5 | |
| 20260905223108 | 31 | 0.0 | 0.0 | 0.00 | 0.00 | 0.00 | 60 | 1011.5 | |
| 20260905222555 | 31 | 0.0 | 0.0 | 0.00 | 0.00 | 0.00 | 58 | 1011.3 | |
| 20260905222053 | 31 | 0.0 | 0.0 | 0.00 | 0.00 | 0.00 | 58 | 1011.1 | |
| 20260905221609 | 31 | 0.0 | 0.0 | 0.00 | 0.00 | 0.00 | 56 | 1011.0 | |
| 20260905221054 | 32 | 0.0 | 0.0 | 0.00 | 0.00 | 0.00 | 55 | 1011.1 | |
| 20260905220554 | 32 | 0.0 | 0.0 | 0.00 | 0.00 | 0.00 | 54 | 1011.0 | |
| 20260905220107 | 34 | 0.0 | 0.0 | 0.00 | 0.00 | 0.00 | 50 | 1011.1 | |
| 20260905215554 | 34 | 0.0 | 0.0 | 0.00 | 0.00 | 0.00 | 50 | 1010.7 | |
| 20260905215054 | 34 | 0.0 | 0.0 | 0.00 | 0.00 | 0.00 | 48 | 1010.4 | |
| 20260905214605 | 34 | 0.0 | 0.0 | 0.00 | 0.00 | 0.00 | 50 | 1010.1 | |
| 20260905214056 | 35 | 0.0 | 0.0 | 0.00 | 0.00 | 0.00 | 50 | 1010.2 | |
| 20260905213555 | 35 | 0.0 | 0.0 | 0.00 | 0.00 | 0.00 | 49 | 1010.2 | |
| 20260905213110 | 34 | 0.0 | 0.0 | 0.00 | 0.00 | 0.00 | 48 | 1010.3 | |
| 20260905212556 | 34 | 0.0 | 0.0 | 0.00 | 0.00 | 0.00 | 51 | 1010.4 | |
| 20260905212053 | 35 | 0.0 | 0.0 | 0.00 | 0.00 | 0.00 | 49 | 1010.5 | |
| 20260905211604 | 35 | 0.0 | 0.0 | 0.00 | 0.00 | 0.00 | 48 | 1010.5 | |
| 20260905211054 | 35 | 0.0 | 0.0 | 0.00 | 0.00 | 0.00 | 47 | 1010.7 | |
| 20260905210554 | 35 | 0.0 | 0.0 | 0.00 | 0.00 | 0.00 | 46 | 1010.8 | |
| 20260905210110 | 35 | 0.0 | 0.0 | 0.00 | 0.00 | 0.00 | 47 | 1010.9 | |
| 20260905205553 | 35 | 0.0 | 0.0 | 0.00 | 0.00 | 0.00 | 46 | 1011.0 | |
| 20260905205056 | 35 | 0.0 | 0.0 | 0.00 | 0.00 | 0.00 | 47 | 1010.9 | |
| 20260905204610 | 35 | 0.0 | 0.0 | 0.00 | 0.00 | 0.00 | 46 | 1010.9 | |
| 20260905204056 | 35 | 0.0 | 0.0 | 0.00 | 0.00 | 0.00 | 48 | 1010.8 | |
| 20260905203554 | 35 | 0.0 | 0.0 | 0.00 | 0.00 | 0.00 | 48 | 1010.8 | |
| 20260905203107 | 35 | 0.0 | 0.0 | 0.00 | 0.00 | 0.00 | 50 | 1010.7 | |
| 20260905202557 | 34 | 0.0 | 0.0 | 0.00 | 0.00 | 0.00 | 49 | 1010.7 | |
| 20260905202053 | 34 | 0.0 | 0.0 | 0.00 | 0.00 | 0.00 | 51 | 1010.8 | |
| 20260905201610 | 33 | 0.0 | 0.0 | 0.00 | 0.00 | 0.00 | 54 | 1011.0 | |
| 20260905201055 | 33 | 0.0 | 0.0 | 0.00 | 0.00 | 0.00 | 53 | 1010.9 | |
| 20260905200555 | 33 | 0.0 | 0.0 | 0.00 | 0.00 | 0.00 | 53 | 1011.0 | |
| 20260905200152 | 34 | 0.0 | 0.0 | 0.00 | 0.00 | 0.00 | 51 | 1011.1 | |
| 20260905195558 | 35 | 0.0 | 0.0 | 0.00 | 0.00 | 0.00 | 52 | 1011.3 | |
| 20260905195054 | 34 | 0.0 | 0.0 | 0.00 | 0.00 | 0.00 | 53 | 1011.3 | |
| 20260905194621 | 34 | 0.0 | 0.0 | 0.00 | 0.00 | 0.00 | 52 | 1011.3 | |
| 20260905194054 | 35 | 0.0 | 0.0 | 0.00 | 0.00 | 0.00 | 52 | 1011.4 | |
| 20260905193554 | 35 | 0.0 | 0.0 | 0.00 | 0.00 | 0.00 | 51 | 1011.3 | |
| 20260905193106 | 35 | 0.0 | 0.0 | 0.00 | 0.00 | 0.00 | 52 | 1011.4 | |
| 20260905192554 | 35 | 0.0 | 0.0 | 0.00 | 0.00 | 0.00 | 51 | 1011.4 | |
| 20260905192056 | 35 | 0.0 | 0.0 | 0.00 | 0.00 | 0.00 | 53 | 1011.5 | |
| 20260905191605 | 35 | 0.0 | 0.0 | 0.00 | 0.00 | 0.00 | 51 | 1011.5 | |
| 20260905191057 | 35 | 0.0 | 0.0 | 0.00 | 0.00 | 0.00 | 53 | 1011.6 | |
| 20260905190556 | 35 | 0.0 | 0.0 | 0.00 | 0.00 | 0.00 | 51 | 1011.7 | |
| 20260905190104 | 35 | 0.0 | 0.0 | 0.00 | 0.00 | 0.00 | 53 | 1011.7 | |
| 20260905185554 | 35 | 0.0 | 0.0 | 0.00 | 0.00 | 0.00 | 53 | 1011.7 | |
| 20260905185055 | 35 | 0.0 | 0.0 | 0.00 | 0.00 | 0.00 | 52 | 1011.8 | |
| 20260905184612 | 35 | 0.0 | 0.0 | 0.00 | 0.00 | 0.00 | 52 | 1012.0 | |
| 20260905184054 | 35 | 0.0 | 0.0 | 0.00 | 0.00 | 0.00 | 53 | 1012.0 | |
| 20260905183555 | 35 | 0.0 | 0.0 | 0.00 | 0.00 | 0.00 | 52 | 1012.1 | |
| 20260905183113 | 35 | 0.0 | 0.0 | 0.00 | 0.00 | 0.00 | 51 | 1012.3 | |
| 20260905182555 | 35 | 0.0 | 0.0 | 0.00 | 0.00 | 0.00 | 51 | 1012.2 | |
| 20260905182056 | 35 | 0.0 | 0.0 | 0.00 | 0.00 | 0.00 | 52 | 1012.3 | |
| 20260905181608 | 34 | 0.0 | 0.0 | 0.00 | 0.00 | 0.00 | 52 | 1012.4 | |
| 20260905181053 | 35 | 0.0 | 0.0 | 0.00 | 0.00 | 0.00 | 52 | 1012.5 | |
| 20260905180556 | 34 | 0.0 | 0.0 | 0.00 | 0.00 | 0.00 | 54 | 1012.5 | |
| 20260905180112 | 34 | 0.0 | 0.0 | 0.00 | 0.00 | 0.00 | 52 | 1012.6 | |
| 20260905175554 | 35 | 0.0 | 0.0 | 0.00 | 0.00 | 0.00 | 52 | 1012.5 | |
| 20260905175055 | 35 | 0.0 | 0.0 | 0.00 | 0.00 | 0.00 | 55 | 1012.7 | |
| 20260905174608 | 35 | 0.0 | 0.0 | 0.00 | 0.00 | 0.00 | 54 | 1012.8 | |
| 20260905174056 | 34 | 0.0 | 0.0 | 0.00 | 0.00 | 0.00 | 54 | 1012.8 | |
| 20260905173555 | 35 | 0.0 | 0.0 | 0.00 | 0.00 | 0.00 | 55 | 1012.9 | |
| 20260905173107 | 35 | 0.0 | 0.0 | 0.00 | 0.00 | 0.00 | 56 | 1013.0 | |
| 20260905172556 | 35 | 0.0 | 0.0 | 0.00 | 0.00 | 0.00 | 56 | 1013.1 | |
| 20260905172056 | 34 | 0.0 | 0.0 | 0.00 | 0.00 | 0.00 | 54 | 1013.1 | |
| 20260905171608 | 34 | 0.0 | 0.0 | 0.00 | 0.00 | 0.00 | 54 | 1013.1 | |
| 20260905171055 | 33 | 0.0 | 0.0 | 0.00 | 0.00 | 0.00 | 59 | 1013.2 | |
| 20260905170556 | 33 | 0.0 | 0.0 | 0.00 | 0.00 | 0.00 | 57 | 1013.2 | |
| 20260905170107 | 33 | 0.0 | 0.0 | 0.00 | 0.00 | 0.00 | 57 | 1013.3 | |
| 20260905165556 | 33 | 0.0 | 0.0 | 0.00 | 0.00 | 0.00 | 57 | 1013.3 | |
| 20260905165056 | 34 | 0.0 | 0.0 | 0.00 | 0.00 | 0.00 | 55 | 1013.6 | |
| 20260905164609 | 34 | 0.0 | 0.0 | 0.00 | 0.00 | 0.00 | 55 | 1013.7 | |
| 20260905164053 | 34 | 0.0 | 0.0 | 0.00 | 0.00 | 0.00 | 57 | 1013.7 | |
| 20260905163553 | 33 | 0.0 | 0.0 | 0.00 | 0.00 | 0.00 | 58 | 1013.7 | |
| 20260905163113 | 33 | 0.0 | 0.0 | 0.00 | 0.00 | 0.00 | 56 | 1013.9 | |
| 20260905162555 | 33 | 0.0 | 0.0 | 0.00 | 0.00 | 0.00 | 56 | 1014.0 | |
| 20260905162055 | 33 | 0.0 | 0.0 | 0.00 | 0.00 | 0.00 | 60 | 1014.1 | |
| 20260905161615 | 32 | 0.0 | 0.0 | 0.00 | 0.00 | 0.00 | 59 | 1014.3 | |
| 20260905161055 | 32 | 0.0 | 0.0 | 0.00 | 0.00 | 0.00 | 59 | 1014.3 | |
| 20260905160559 | 32 | 0.0 | 0.0 | 0.00 | 0.00 | 0.00 | 60 | 1014.4 | |
| 20260905160105 | 32 | 0.0 | 0.0 | 0.00 | 0.00 | 0.00 | 61 | 1014.4 | |
| 20260905155554 | 33 | 0.0 | 0.0 | 0.00 | 0.00 | 0.00 | 63 | 1014.5 | |
| 20260905155054 | 32 | 0.0 | 0.0 | 0.00 | 0.00 | 0.00 | 61 | 1014.5 | |
| 20260905154606 | 32 | 0.0 | 0.0 | 0.00 | 0.00 | 0.00 | 63 | 1014.6 | |
| 20260905154057 | 32 | 0.0 | 0.0 | 0.00 | 0.00 | 0.00 | 62 | 1014.5 | |
| 20260905153553 | 32 | 0.0 | 0.0 | 0.00 | 0.00 | 0.00 | 63 | 1014.7 | |
| 20260905153108 | 32 | 0.0 | 0.0 | 0.00 | 0.00 | 0.00 | 66 | 1014.7 | |
| 20260905152556 | 32 | 0.0 | 0.0 | 0.00 | 0.00 | 0.00 | 68 | 1014.7 | |
| 20260905152056 | 31 | 0.0 | 0.0 | 0.00 | 0.00 | 0.00 | 67 | 1014.6 | |
| 20260905151610 | 31 | 0.0 | 0.0 | 0.00 | 0.00 | 0.00 | 67 | 1014.6 | |
| 20260905151053 | 31 | 0.0 | 0.0 | 0.00 | 0.00 | 0.00 | 68 | 1014.6 | |
| 20260905150553 | 31 | 0.0 | 0.0 | 0.00 | 0.00 | 0.00 | 69 | 1014.7 | |
| 20260905150108 | 31 | 0.0 | 0.0 | 0.00 | 0.00 | 0.00 | 70 | 1014.7 | |
| 20260905145555 | 31 | 0.0 | 0.0 | 0.00 | 0.00 | 0.00 | 75 | 1014.9 | |
| 20260905145055 | 30 | 0.0 | 0.0 | 0.00 | 0.00 | 0.00 | 73 | 1014.9 | |
| 20260905144607 | 29 | 0.0 | 0.0 | 0.00 | 0.00 | 0.00 | 75 | 1015.0 | |
| 20260905144056 | 30 | 0.0 | 0.0 | 0.00 | 0.00 | 0.00 | 74 | 1015.1 | |
| 20260905143556 | 30 | 0.0 | 0.0 | 0.00 | 0.00 | 0.00 | 75 | 1015.1 | |
| 20260905143109 | 30 | 0.0 | 0.0 | 0.00 | 0.00 | 0.00 | 76 | 1015.2 | |
| 20260905142556 | 29 | 0.0 | 0.0 | 0.00 | 0.00 | 0.00 | 74 | 1015.1 | |
| 20260905142056 | 29 | 0.0 | 0.0 | 0.00 | 0.00 | 0.00 | 75 | 1015.1 | |
| 20260905141607 | 28 | 0.0 | 0.0 | 0.00 | 0.00 | 0.00 | 77 | 1015.2 | |
| 20260905141053 | 28 | 0.0 | 0.0 | 0.00 | 0.00 | 0.00 | 78 | 1015.2 | |
| 20260905140557 | 28 | 0.0 | 0.0 | 0.00 | 0.00 | 0.00 | 79 | 1015.3 | |
| 20260905140109 | 27 | 0.0 | 0.0 | 0.00 | 0.00 | 0.00 | 81 | 1015.3 | |
| 20260905135553 | 27 | 0.0 | 0.0 | 0.00 | 0.00 | 0.00 | 81 | 1015.3 | |
| 20260905135054 | 27 | 0.0 | 0.0 | 0.00 | 0.00 | 0.00 | 82 | 1015.3 | |
| 20260905134615 | 26 | 0.0 | 0.0 | 0.00 | 0.00 | 0.00 | 85 | 1015.3 | |
| 20260905134056 | 26 | 0.0 | 0.0 | 0.00 | 0.00 | 0.00 | 86 | 1015.2 | |
| 20260905133555 | 26 | 0.0 | 0.0 | 0.00 | 0.00 | 0.00 | 87 | 1015.3 | |
| 20260905133106 | 26 | 0.0 | 0.0 | 0.00 | 0.00 | 0.00 | 88 | 1015.3 | |
| 20260905132556 | 25 | 0.0 | 0.0 | 0.00 | 0.00 | 0.00 | 90 | 1015.3 | |
| 20260905132055 | 25 | 0.0 | 0.0 | 0.00 | 0.00 | 0.00 | 92 | 1015.4 | |
| 20260905131611 | 24 | 0.0 | 0.0 | 0.00 | 0.00 | 0.00 | 93 | 1015.5 | |
| 20260905131055 | 23 | 0.0 | 0.0 | 0.00 | 0.00 | 0.00 | 93 | 1015.5 | |
| 20260905130558 | 23 | 0.0 | 0.0 | 0.00 | 0.00 | 0.00 | 94 | 1015.7 | |
| 20260905130112 | 23 | 0.0 | 0.0 | 0.00 | 0.00 | 0.00 | 94 | 1015.7 | |
| 20260905125601 | 23 | 0.0 | 0.0 | 0.00 | 0.00 | 0.00 | 94 | 1015.7 | |
| 20260905125053 | 23 | 0.0 | 0.0 | 0.00 | 0.00 | 0.00 | 94 | 1015.7 | |
| 20260905124608 | 23 | 0.0 | 0.0 | 0.00 | 0.00 | 0.00 | 95 | 1015.6 | |
| 20260905124053 | 23 | 0.0 | 0.0 | 0.00 | 0.00 | 0.00 | 94 | 1015.6 | |
| 20260905123556 | 22 | 0.0 | 0.0 | 0.00 | 0.00 | 0.00 | 95 | 1015.6 | |
| 20260905123108 | 22 | 0.0 | 0.0 | 0.00 | 0.00 | 0.00 | 95 | 1015.5 | |
| 20260905122556 | 22 | 0.0 | 0.0 | 0.00 | 0.00 | 0.00 | 95 | 1015.5 | |
| 20260905122057 | 22 | 0.0 | 0.0 | 0.00 | 0.00 | 0.00 | 94 | 1015.4 | |
| 20260905121609 | 22 | 0.0 | 0.0 | 0.00 | 0.00 | 0.00 | 95 | 1015.3 | |
| 20260905121056 | 22 | 0.0 | 0.0 | 0.00 | 0.00 | 0.00 | 95 | 1015.3 | |
| 20260905120555 | 22 | 0.0 | 0.0 | 0.00 | 0.00 | 0.00 | 95 | 1015.3 | |
| 20260905120108 | 22 | 0.0 | 0.0 | 0.00 | 0.00 | 0.00 | 95 | 1015.2 | |
| 20260905115553 | 22 | 0.0 | 0.0 | 0.00 | 0.00 | 0.00 | 94 | 1015.2 | |
| 20260905115058 | 22 | 0.0 | 0.0 | 0.00 | 0.00 | 0.00 | 94 | 1015.1 | |
| 20260905114613 | 22 | 0.0 | 0.0 | 0.00 | 0.00 | 0.00 | 94 | 1015.1 | |
| 20260905114053 | 22 | 0.0 | 0.0 | 0.00 | 0.00 | 0.00 | 94 | 1015.1 | |
| 20260905113556 | 22 | 0.0 | 0.0 | 0.00 | 0.00 | 0.00 | 94 | 1015.2 | |
| 20260905113109 | 22 | 0.0 | 0.0 | 0.00 | 0.00 | 0.00 | 94 | 1015.0 | |
| 20260905112556 | 22 | 0.0 | 0.0 | 0.00 | 0.00 | 0.00 | 94 | 1015.0 | |
| 20260905112058 | 22 | 0.0 | 0.0 | 0.00 | 0.00 | 0.00 | 94 | 1014.9 | |
| 20260905111615 | 22 | 0.0 | 0.0 | 0.00 | 0.00 | 0.00 | 94 | 1015.0 | |
| 20260905111056 | 22 | 0.0 | 0.0 | 0.00 | 0.00 | 0.00 | 94 | 1014.9 | |
| 20260905110558 | 22 | 0.0 | 0.0 | 0.00 | 0.00 | 0.00 | 94 | 1014.9 | |
| 20260905110105 | 22 | 0.0 | 0.0 | 0.00 | 0.00 | 0.00 | 94 | 1014.7 | |
| 20260905105557 | 22 | 0.0 | 0.0 | 0.00 | 0.00 | 0.00 | 94 | 1014.7 | |
| 20260905105057 | 22 | 0.0 | 0.0 | 0.00 | 0.00 | 0.00 | 94 | 1014.6 | |
| 20260905104603 | 22 | 0.0 | 0.0 | 0.00 | 0.00 | 0.00 | 94 | 1014.5 | |
| 20260905104056 | 22 | 0.0 | 0.0 | 0.00 | 0.00 | 0.00 | 94 | 1014.5 | |
| 20260905103556 | 22 | 0.0 | 0.0 | 0.00 | 0.00 | 0.00 | 94 | 1014.6 | |
| 20260905103107 | 22 | 0.0 | 0.0 | 0.00 | 0.00 | 0.00 | 94 | 1014.4 | |
| 20260905102556 | 22 | 0.0 | 0.0 | 0.00 | 0.00 | 0.00 | 93 | 1014.4 | |
| 20260905102056 | 22 | 0.0 | 0.0 | 0.00 | 0.00 | 0.00 | 93 | 1014.5 | |
| 20260905101606 | 22 | 0.0 | 0.0 | 0.00 | 0.00 | 0.00 | 93 | 1014.5 | |
| 20260905101056 | 22 | 0.0 | 0.0 | 0.00 | 0.00 | 0.00 | 93 | 1014.3 | |
| 20260905100558 | 22 | 0.0 | 0.0 | 0.00 | 0.00 | 0.00 | 93 | 1014.3 | |
| 20260905100108 | 22 | 0.0 | 0.0 | 0.00 | 0.00 | 0.00 | 93 | 1014.4 | |
| 20260905095555 | 22 | 0.0 | 0.0 | 0.00 | 0.00 | 0.00 | 93 | 1014.3 | |
| 20260905095056 | 22 | 0.0 | 0.0 | 0.00 | 0.00 | 0.00 | 93 | 1014.2 | |
| 20260905094613 | 22 | 0.0 | 0.0 | 0.00 | 0.00 | 0.00 | 93 | 1014.3 |